Powrót do katalogu

STARLINK-4058

AktywnyŁącznośćVLEO
NORAD 53266·PAYLOAD·🇺🇸 United States

Wystrzelony Jul 24, 2022 z Cape Canaveral Space Force Station

Loading…

Następne Przeloty (najbliższe 24 godziny)

TLE

ŚwieżeSource: CelesTrak SupGP

Epoka: Sep 14, 2026, 20:43 UTC

1 53266C 22086AA  26257.86368056  .00054513  00000+0  16543-2 0  2579
2 53266  53.1596  52.2917 0001179  74.7812  60.5043 15.33518125    19

Śledź STARLINK-4058 w czasie rzeczywistym z AllMySat

Download on the App Store